EA5CLU Weather Reports


time (UTC)temp
C
wind
direction
speed
KPH
gust
KPH
rain 1hr
cm
rain 24hr
cm
rain mn
cm
humidity
%
barometer
mb
20260902140004 26 227 19.3 37.0 0.00 0.00 0.00 72 1023.1
20260902135003 26 214 16.1 37.0 0.00 0.00 0.00 72 1023.3
20260902134004 26 189 14.5 37.0 0.00 0.00 0.00 70 1023.2
20260902133004 26 196 16.1 33.8 0.00 0.00 0.00 71 1023.5
20260902132003 26 183 20.9 33.8 0.00 0.00 0.00 71 1023.6
20260902131003 26 221 14.5 37.0 0.00 0.00 0.00 72 1023.6
20260902130003 26 225 20.9 37.0 0.00 0.00 0.00 71 1023.7
20260902125004 26 213 14.5 45.1 0.00 0.00 0.00 71 1023.6
20260902124004 26 177 19.3 33.8 0.00 0.00 0.00 71 1023.6
20260902123003 26 166 19.3 29.0 0.00 0.00 0.00 70 1023.7
20260902122004 26 173 12.9 37.0 0.00 0.00 0.00 71 1023.7
20260902121004 26 193 14.5 37.0 0.00 0.00 0.00 71 1023.8
20260902120004 26 218 11.3 33.8 0.00 0.00 0.00 72 1023.8
20260902115004 26 189 22.5 29.0 0.00 0.00 0.00 72 1024.2
20260902114003 26 173 19.3 37.0 0.00 0.00 0.00 73 1024.0
20260902113004 26 247 16.1 29.0 0.00 0.00 0.00 71 1023.9
20260902103003 25 166 12.9 22.5 0.00 0.00 0.00 72 1024.2
20260902102004 25 208 9.7 22.5 0.00 0.00 0.00 73 1024.3
20260902101004 25 175 9.7 29.0 0.00 0.00 0.00 74 1024.3
20260902100004 24 186 16.1 22.5 0.00 0.00 0.00 75 1024.3
20260902095004 24 168 11.3 22.5 0.00 0.00 0.00 76 1024.3
20260902094004 24 183 4.8 22.5 0.00 0.00 0.00 77 1024.3
20260902091004 23 189 14.5 25.7 0.00 0.00 0.00 82 1024.5
20260902090004 22 228 12.9 29.0 0.00 0.00 0.00 82 1024.5
20260902085004 23 183 12.9 33.8 0.00 0.00 0.00 83 1024.3
20260902084004 23 198 12.9 29.0 0.00 0.00 0.00 82 1024.4
20260902083003 23 203 14.5 29.0 0.00 0.00 0.00 81 1024.2
20260902082004 22 250 9.7 22.5 0.00 0.00 0.00 82 1024.5
20260902080004 23 242 4.8 14.5 0.00 0.00 0.00 81 1023.9
20260902075003 22 209 3.2 8.0 0.00 0.00 0.00 82 1023.8
20260902074004 21 182 3.2 8.0 0.00 0.00 0.00 84 1023.7
20260902073004 21 355 1.6 3.2 0.00 0.00 0.00 84 1023.8
20260902072004 21 66 1.6 3.2 0.00 0.00 0.00 87 1023.8
20260902071004 20 327 1.6 11.3 0.00 0.00 0.00 89 1023.5
20260901170004 23 168 11.3 33.8 0.00 0.00 0.00 80 1021.1